Location: Ferchesar
(52.6477°N, 12.4298°E)
Time: 15:06:46
(UTC+01:00)

deb Explorer IX - Pass Details

Date: 15 December 2021
Orbit: 544 x 1082 km, 38.8° (Epoch: 18 January)

Event Time Altitude Azimuth Distance (km) Brightness Sun altitude
Rises 10:04:24 0° 255° (WSW) 3,381 ? 9.6°
Reaches altitude 10° 10:09:03 10° 222° (SW) 2,283 ? 9.9°
Maximum altitude 10:10:31 11° 206° (SSW) 2,156 ? 10.0°
Drops below altitude 10° 10:11:56 10° 189° (S) 2,182 ? 10.1°
Sets 10:16:02 0° 154° (SSE) 2,956 ? 10.4°
